Weather reports worldwide

Advertisment
Holbeach, United Kingdom (3469): temperature & dewpoint: 08.12.2017 15:00:00 - 14.12.2017 15:00:00 (GMT)Holbeach, United Kingdom (3469): temperature -20cm & temperature -100cm: 08.12.2017 15:00:00 - 14.12.2017 15:00:00 (GMT)Holbeach, United Kingdom (3469): wind speed & gusts: 08.12.2017 15:00:00 - 14.12.2017 15:00:00 (GMT)Holbeach, United Kingdom (3469): wind direction: 08.12.2017 15:00:00 - 14.12.2017 15:00:00 (GMT)Holbeach, United Kingdom (3469): reduced air pressure: 08.12.2017 15:00:00 - 14.12.2017 15:00:00 (GMT)Holbeach, United Kingdom (3469): visibility: 08.12.2017 15:00:00 - 14.12.2017 15:00:00 (GMT)Holbeach, United Kingdom (3469): precipitation: 08.12.2017 15:00:00 - 14.12.2017 15:00:00 (GMT)
Date & Time tt [°C] td [°C] tt -20cm [°C] tt -100cm [°C] ff [km/h] ff [kn] fx [km/h] fx [kn] dd ppp [hPa] vv [km] rr [mm]
14.12.2017 15:00:00 - - - - - - - - - - - -
14.12.2017 14:00:00 5,4 2,0 - - 31 17 48 26 WSW 987,0 10 0,0
14.12.2017 13:00:00 5,3 2,1 - - 34 18 46 25 WSW 987,5 10 0,0
14.12.2017 12:00:00 5,0 2,4 - - 31 17 48 26 WSW 988,0 35 0,0
14.12.2017 11:00:00 4,4 1,7 - - 31 17 - - WSW 988,6 28 0,0
14.12.2017 10:00:00 3,2 1,1 - - 28 15 - - WSW 989,0 40 0,0
14.12.2017 09:00:00 3,3 1,3 5,5 8,7 28 15 - - SW 988,9 30 0,0
14.12.2017 08:00:00 2,9 1,3 - - 21 11 - - WSW 988,7 35 0,0
14.12.2017 07:00:00 2,8 1,5 - - 18 10 - - SW 988,8 40 0,0
14.12.2017 06:00:00 3,2 1,6 - - 29 16 - - WSW 988,6 50 0,0
14.12.2017 05:00:00 3,1 1,7 - - 24 13 - - W 988,6 22 0,2
14.12.2017 04:00:00 2,7 1,4 - - 22 12 - - W 988,7 15 0,0
14.12.2017 03:00:00 2,0 0,7 - - 15 8 - - WSW 988,7 40 0,2
14.12.2017 02:00:00 2,3 0,5 - - 28 15 - - W 988,7 50 0,0
14.12.2017 01:00:00 1,8 0,7 - - 26 14 - - W 987,9 50 0,0
14.12.2017 00:00:00 1,9 1,2 - - 22 12 - - W 987,5 45 0,6
13.12.2017 23:00:00 0,8 0,2 - - 21 11 - - W 986,9 3,3 2,8
13.12.2017 22:00:00 3,1 1,7 - - 22 12 - - W 986,6 4,2 0,4
13.12.2017 21:00:00 2,9 0,9 - - 28 15 - - WSW 986,7 35 0,0
13.12.2017 20:00:00 2,3 0,8 - - 24 13 - - WSW 986,8 45 0,0
13.12.2017 19:00:00 2,6 1,1 - - 21 11 - - W 987,6 30 0,0
13.12.2017 18:00:00 3,7 1,6 - - 29 16 - - W 988,2 40 0,0
13.12.2017 17:00:00 4,7 2,7 - - 26 14 - - W 988,0 50 0,0
13.12.2017 16:00:00 5,9 3,8 - - 28 15 70 38 WNW 987,6 50 1,4
13.12.2017 15:00:00 6,5 5,6 - - 41 22 54 29 SW 988,2 6 0,6
13.12.2017 14:00:00 6,8 5,4 - - 39 21 52 28 SW 989,0 35 0,0
13.12.2017 13:00:00 6,1 5,0 - - 35 19 52 28 SW 990,8 16 0,0
13.12.2017 12:00:00 5,8 4,5 - - 35 19 46 25 SW 992,7 26 0,0
13.12.2017 11:00:00 5,5 4,1 - - 35 19 46 25 SW 994,4 24 0,0
13.12.2017 10:00:00 4,9 3,9 - - 26 14 - - WSW 995,6 19 0,0
13.12.2017 09:00:00 3,4 2,9 5,2 8,7 24 13 - - WSW 996,3 10 0,0
13.12.2017 08:00:00 2,9 2,5 - - 18 10 - - SW 997,1 9 0,0
13.12.2017 07:00:00 3,0 2,7 - - 16 9 - - WSW 998,0 6 0,0
13.12.2017 06:00:00 2,9 2,7 - - 16 9 - - W 998,3 5 0,0
13.12.2017 05:00:00 3,0 2,8 - - 18 10 - - WSW 999,0 6 0,0
13.12.2017 04:00:00 3,2 2,9 - - 16 9 - - WSW 999,4 4,5 0,0
13.12.2017 03:00:00 3,8 3,6 - - 24 13 - - SW 1000,1 7 0,0
13.12.2017 02:00:00 3,2 2,9 - - 26 14 - - SSW 1000,5 4,1 0,2
13.12.2017 01:00:00 3,5 2,9 - - 34 18 48 26 SSW 1000,9 12 0,0
13.12.2017 00:00:00 3,0 2,0 - - 28 15 - - S 1001,8 30 0,2
12.12.2017 23:00:00 2,6 1,6 - - 31 17 - - SSW 1003,3 10 0,4
12.12.2017 22:00:00 1,7 0,6 - - 28 15 - - SSW 1004,6 11 0,0
12.12.2017 21:00:00 1,4 0,0 - - 28 15 - - SSW 1005,7 45 0,0
12.12.2017 20:00:00 1,2 -0,3 - - 24 13 - - SSW 1006,5 35 0,0
12.12.2017 19:00:00 0,8 -0,6 - - 24 13 - - SSW 1007,1 35 0,0
12.12.2017 18:00:00 0,3 -0,8 - - 26 14 - - SW 1007,5 10 0,0
12.12.2017 17:00:00 0,1 -1,0 - - 24 13 - - SSW 1007,9 16 0,0
12.12.2017 16:00:00 0,0 -0,9 - - 22 12 - - SSW 1007,8 13 0,0
12.12.2017 15:00:00 0,6 -0,6 - - 21 11 - - SW 1007,9 10 0,0
12.12.2017 14:00:00 1,7 -0,1 - - 18 10 - - SSW 1007,6 13 0,0
12.12.2017 13:00:00 1,2 -0,5 - - 16 9 - - WSW 1007,9 10 0,2
12.12.2017 12:00:00 1,3 -0,9 - - 16 9 - - WSW 1007,7 10 0,0
12.12.2017 11:00:00 0,5 -1,4 - - 13 7 - - SW 1007,6 13 0,0
12.12.2017 10:00:00 -0,4 -2,2 - - 9 5 - - SW 1006,9 21 0,0
12.12.2017 09:00:00 -2,0 -2,8 5,4 8,9 16 9 - - W 1006,6 10 0,0
12.12.2017 08:00:00 -1,9 -2,5 - - 15 8 - - W 1005,8 18 0,0
12.12.2017 07:00:00 -1,9 -2,7 - - 11 6 - - WNW 1004,6 17 0,0
12.12.2017 06:00:00 -1,3 -2,2 - - 15 8 - - NW 1003,9 21 0,0
12.12.2017 05:00:00 -1,1 -1,9 - - 16 9 - - NW 1003,4 19 0,0
12.12.2017 04:00:00 -0,9 -1,5 - - 22 12 - - NW 1002,2 16 0,0
12.12.2017 03:00:00 -1,1 -1,8 - - 22 12 - - NW 1001,0 13 0,0
12.12.2017 02:00:00 -0,9 -1,5 - - 21 11 - - NW 999,7 11 0,0
12.12.2017 01:00:00 -0,9 -1,5 - - 21 11 - - NW 998,3 10 0,0
12.12.2017 00:00:00 -0,7 -1,2 - - 21 11 - - NW 997,4 11 0,0
11.12.2017 23:00:00 -0,9 -1,6 - - 21 11 - - NW 996,5 19 0,0
11.12.2017 22:00:00 -0,9 -1,7 - - 22 12 - - NW 995,7 24 0,0
11.12.2017 21:00:00 -0,9 -2,0 - - 21 11 - - NW 994,8 30 0,0
11.12.2017 20:00:00 -0,7 -2,0 - - 22 12 - - NW 993,0 45 0,0
11.12.2017 19:00:00 0,2 -1,4 - - 26 14 - - NW 991,5 50 0,0
11.12.2017 18:00:00 0,7 -1,2 - - 28 15 - - NNW 990,4 40 0,0
11.12.2017 17:00:00 1,9 0,4 - - 28 15 - - NNW 989,3 40 0,0
11.12.2017 16:00:00 2,3 0,9 - - 34 18 - - N 988,2 10 0,0
11.12.2017 15:00:00 3,7 0,9 - - 26 14 50 27 N 987,5 10 0,0
11.12.2017 14:00:00 4,4 0,7 - - 37 20 55 30 NNE 986,4 10 0,0
11.12.2017 13:00:00 4,3 1,2 - - 39 21 57 31 NNE 985,8 10 0,0
11.12.2017 12:00:00 4,9 -0,1 - - 48 26 55 30 NE 985,2 10 0,0
11.12.2017 11:00:00 4,8 0,1 - - 41 22 57 31 NE 985,1 45 0,0
11.12.2017 10:00:00 4,4 0,2 - - 44 24 57 31 NE 984,5 50 0,0
11.12.2017 09:00:00 4,2 0,3 5,7 9,0 39 21 50 27 NE 984,5 50 0,0
11.12.2017 08:00:00 4,2 1,4 - - 35 19 50 27 NE 984,1 50 0,0
11.12.2017 07:00:00 4,0 1,9 - - 29 16 50 27 ENE 983,2 45 0,0
11.12.2017 06:00:00 3,8 1,3 - - 31 17 - - NE 982,5 35 0,0
11.12.2017 05:00:00 3,6 1,9 - - 34 18 - - NE 982,7 50 0,2
11.12.2017 04:00:00 3,9 2,2 - - 24 13 - - ENE 983,6 40 0,2
11.12.2017 03:00:00 3,6 1,9 - - 24 13 - - NE 983,7 50 0,0
11.12.2017 02:00:00 2,8 2,4 - - 24 13 - - NNE 983,1 45 0,0
11.12.2017 01:00:00 2,2 1,8 - - 18 10 - - N 983,1 10 0,2
11.12.2017 00:00:00 2,2 1,5 - - 18 10 - - N 982,4 13 0,4
10.12.2017 23:00:00 2,7 2,3 - - 22 12 - - NNE 982,0 19 0,2
10.12.2017 22:00:00 2,4 2,2 - - 18 10 - - N 981,4 4,7 0,2
10.12.2017 21:00:00 1,9 1,5 - - 15 8 - - N 980,8 12 0,0
10.12.2017 20:00:00 1,8 1,3 - - 16 9 - - NNW 980,1 26 0,0
10.12.2017 19:00:00 0,7 0,0 - - 11 6 - - NNW 979,2 20 0,0
10.12.2017 18:00:00 1,7 1,2 - - 16 9 - - NNW 978,7 23 0,0
10.12.2017 17:00:00 2,3 1,8 - - 26 14 - - N 977,7 12 0,6
10.12.2017 16:00:00 2,7 2,0 - - 31 17 50 27 NNE 976,9 16 0,2
10.12.2017 15:00:00 2,5 1,8 - - 39 21 54 29 NNE 976,1 8 0,0
10.12.2017 14:00:00 3,5 2,8 - - 13 7 - - N 975,3 17 0,0
10.12.2017 13:00:00 3,6 2,5 - - 22 12 - - ENE 975,0 30 0,2
10.12.2017 12:00:00 3,4 2,6 - - 28 15 - - ENE 975,4 25 0,4
10.12.2017 11:00:00 3,0 2,5 - - 35 19 48 26 ENE 976,4 14 1,4
10.12.2017 10:00:00 1,9 1,5 - - 35 19 46 25 ENE 978,3 9 1,6
10.12.2017 09:00:00 0,8 0,2 5,7 9,2 29 16 - - ENE 980,3 7 0,0
10.12.2017 08:00:00 0,9 -1,4 - - 26 14 - - E 982,8 6 0,0
10.12.2017 07:00:00 0,7 -1,8 - - 21 11 - - E 985,4 35 0,0
10.12.2017 06:00:00 -0,5 -1,7 - - 16 9 - - ESE 988,2 14 0,0
10.12.2017 05:00:00 -1,1 -2,2 - - 13 7 - - SE 991,1 16 0,0
10.12.2017 04:00:00 -1,8 -2,5 - - 11 6 - - SSE 993,9 13 0,0
10.12.2017 03:00:00 -0,9 -1,8 - - 13 7 - - S 996,3 15 0,0
10.12.2017 02:00:00 -0,6 -1,5 - - 15 8 - - S 998,2 17 0,0
10.12.2017 01:00:00 0,0 -1,1 - - 15 8 - - SSW 1000,0 19 0,0
10.12.2017 00:00:00 0,3 -1,0 - - 11 6 - - SW 1002,2 20 0,0
09.12.2017 23:00:00 0,3 -1,1 - - 9 5 - - SW 1003,4 29 0,0
09.12.2017 22:00:00 0,7 -0,9 - - 18 10 - - SW 1004,7 21 0,0
09.12.2017 21:00:00 0,6 -0,7 - - 16 9 - - SW 1005,9 27 0,0
09.12.2017 20:00:00 0,4 -0,8 - - 16 9 - - SW 1007,2 28 0,0
09.12.2017 19:00:00 0,4 -0,9 - - 18 10 - - WSW 1008,3 27 0,0
09.12.2017 18:00:00 1,1 -0,6 - - 22 12 - - WSW 1008,9 40 0,0
09.12.2017 17:00:00 1,3 -0,3 - - 18 10 - - W 1009,5 35 0,0
09.12.2017 16:00:00 1,1 -0,3 - - 15 8 - - WSW 1010,2 50 0,0
09.12.2017 15:00:00 1,7 -0,1 - - 21 11 - - W 1010,8 45 0,0
09.12.2017 14:00:00 1,5 0,0 - - 15 8 - - W 1011,8 45 0,0
09.12.2017 13:00:00 1,5 -0,2 - - 22 12 - - W 1013,0 40 0,0
09.12.2017 12:00:00 1,2 -0,4 - - 22 12 - - W 1013,8 40 0,0
09.12.2017 11:00:00 0,9 -0,9 - - 18 10 - - W 1014,6 26 0,0
09.12.2017 10:00:00 -0,1 -1,9 - - 16 9 - - W 1015,3 35 0,0
09.12.2017 09:00:00 -1,2 -2,7 6,2 9,2 16 9 - - W 1015,4 45 0,0
09.12.2017 08:00:00 -1,1 -2,8 - - 22 12 - - W 1015,3 45 0,0
09.12.2017 07:00:00 -1,4 -3,1 - - 21 11 - - W 1015,4 50 0,0
09.12.2017 06:00:00 -1,2 -3,3 - - 18 10 - - W 1015,3 45 0,0
09.12.2017 05:00:00 -1,0 -3,4 - - 16 9 - - W 1015,4 50 0,0
09.12.2017 04:00:00 -0,8 -3,3 - - 18 10 - - W 1015,9 40 0,0
09.12.2017 03:00:00 -0,7 -3,1 - - 18 10 - - W 1016,1 45 0,0
09.12.2017 02:00:00 -0,3 -2,9 - - 22 12 - - WNW 1015,9 50 0,0
09.12.2017 01:00:00 -0,1 -3,0 - - 24 13 - - WNW 1015,5 40 0,0
09.12.2017 00:00:00 -0,4 -2,8 - - 24 13 - - W 1015,4 27 0,0
08.12.2017 23:00:00 -0,2 -2,5 - - 22 12 - - W 1015,6 35 0,0
08.12.2017 22:00:00 -0,1 -2,7 - - 21 11 - - W 1015,5 30 0,0
08.12.2017 21:00:00 -0,2 -2,4 - - 21 11 - - W 1015,5 25 0,0
08.12.2017 20:00:00 0,1 -1,6 - - 22 12 - - W 1015,6 35 0,0
08.12.2017 19:00:00 0,4 -1,5 - - 21 11 - - W 1015,1 35 0,0
08.12.2017 18:00:00 0,6 -2,8 - - 21 11 - - W 1014,8 50 0,0
08.12.2017 17:00:00 1,1 -3,3 - - 26 14 - - WNW 1014,4 30 0,0
08.12.2017 16:00:00 1,7 -2,6 - - 22 12 - - WNW 1014,0 40 0,0
08.12.2017 15:00:00 3,0 -2,3 - - 26 14 - - WNW 1013,5 50 0,0

tt = temperature
td = dewpoint
tt -20cm = temperature -20cm
tt -100cm = temperature -100cm
ff = wind speed
fx = gusts
dd = wind direction
ppp = reduced air pressure
vv = visibility
rr = precipitation

Next stations